ELECTRON R/B (47255 NORAD) Tracking and Keplerian Element Data

This shows tracking and keplerian element data for the satellite.

Feedback or suggestion? Click here.




ElementValue
Catalog47255
NameELECTRON R/B
Epoch Orbit205
Epoch Day363.30448385
Epoch Year2020
RAAN256.1069
Inclination97.3248
Eccentricity0.0018168
Argument of Perigee183.6544
Mean Anonmoly178.4381
Mean Motion16.5439406
Decay Rate0.59869234
L11 47255U 20098C 20363.30448385 .59869234 22986-5 33076-3 0 9991
L22 47255 97.3248 256.1069 0018168 183.6544 178.4381 16.54394060 2059

Live tracking and technical data element details for ELECTRON R/B (NORAD 47255). ELECTRON R/B can be tracked NOW for your location showing map with azimuth and elevation plus other details from your city location.

Track the satellite on the map from your city or location and see movement details for azimuth, elevation, latitude, longitude, range, height, and movement on the map or in text.







IsCatalogInMostPopularTable: catalog: 47255, numindb: 10
Update: records affected: 1



GetName: 47255 ELECTRON R/B

Hit Count: updated at: Sun, 17 Jan 2021 09:09:06 GMT